History for Miami, FL

Saturday, December 22, 2012 — View Current Conditions

Jump to Data:

Date:
Airport Code:
Recently Viewed Airport Codes: KMIA
Daily Summary
  Actual Average Record
Temperature
Mean Temperature 57°F 70°F  
Max Temperature 66°F 77°F 86°F (1948)
Min Temperature 48°F 62°F 39°F (1960)
Degree Days
Heating Degree Days 8 1  
Month to date heating degree days 10 18  
Since 1 July heating degree days 11 21  
Cooling Degree Days 0 6  
Month to date cooling degree days 202 152  
Year to date cooling degree days 4642 4524  
Growing Degree Days 7 (Base 50)    
Moisture
Dew Point 31°F    
Average Humidity 44    
Maximum Humidity 66    
Minimum Humidity 22    
Precipitation
Precipitation 0.00 in 0.06 in 1.83 in (1971)
Month to date precipitation 0.51 1.51  
Year to date precipitation 86.94 61.37  
Snow
Snow 0.00 in in in ()
Month to date snowfall 0.0  
Since 1 July snowfall 0.0  
Snow Depth 0.00 in    
Sea Level Pressure
Sea Level Pressure 30.22 in    
Wind
Wind Speed 7 mph (NNW)    
Max Wind Speed 15 mph    
Max Gust Speed 23 mph    
Visibility 10 miles    
Events      
T = Trace of Precipitation, MM = Missing Value Source: NWS Daily Summary

Show full METARS

(help) - Comma Delimited File

Hourly Observations

Time(EST) Temperature Dew Point Humidity Sea Level Pressure Visibility Wind Direction Wind Speed Gust Speed Precipitation Events Conditions
12:53 AM 51.1°F 37.0°F 59% 30.19 in 10.0 miles NW 9.2 mph 19.6 mph N/A   Clear
1:53 AM 51.1°F 37.9°F 61% 30.19 in 10.0 miles Variable 6.9 mph - N/A   Clear
2:53 AM 50.0°F 39.0°F 66% 30.19 in 10.0 miles NW 5.8 mph - N/A   Clear
3:53 AM 50.0°F 37.9°F 63% 30.20 in 10.0 miles NW 6.9 mph - N/A   Clear
4:53 AM 50.0°F 35.1°F 57% 30.19 in 10.0 miles NNW 8.1 mph 16.1 mph N/A   Clear
5:53 AM 48.9°F 33.1°F 54% 30.21 in 10.0 miles NNW 10.4 mph 16.1 mph N/A   Clear
6:53 AM 48.0°F 32.0°F 54% 30.22 in 10.0 miles NNW 10.4 mph 19.6 mph N/A   Mostly Cloudy
7:53 AM 48.9°F 30.0°F 48% 30.25 in 10.0 miles NNW 10.4 mph 20.7 mph N/A   Mostly Cloudy
8:53 AM 51.1°F 30.0°F 44% 30.27 in 10.0 miles NNW 9.2 mph 20.7 mph N/A   Partly Cloudy
9:53 AM 55.0°F 30.0°F 38% 30.28 in 10.0 miles NW 10.4 mph 16.1 mph N/A   Partly Cloudy
10:53 AM 57.9°F 27.0°F 31% 30.26 in 10.0 miles NNW 9.2 mph - N/A   Partly Cloudy
11:53 AM 60.1°F 30.0°F 32% 30.25 in 10.0 miles NNW 11.5 mph 18.4 mph N/A   Scattered Clouds
12:53 PM 63.0°F 28.0°F 27% 30.22 in 10.0 miles NNW 10.4 mph - N/A   Partly Cloudy
1:53 PM 64.0°F 25.0°F 23% 30.19 in 10.0 miles NW 8.1 mph - N/A   Partly Cloudy
2:53 PM 64.9°F 25.0°F 22% 30.19 in 10.0 miles NNW 8.1 mph 16.1 mph N/A   Partly Cloudy
3:53 PM 64.9°F 24.1°F 21% 30.20 in 10.0 miles NNW 9.2 mph 16.1 mph N/A   Clear
4:53 PM 63.0°F 27.0°F 26% 30.20 in 10.0 miles NNW 6.9 mph - N/A   Clear
5:53 PM 60.1°F 27.0°F 28% 30.22 in 10.0 miles NNW 4.6 mph - N/A   Clear
6:53 PM 57.9°F 28.9°F 33% 30.23 in 10.0 miles NNW 4.6 mph - N/A   Clear
7:53 PM 57.0°F 30.0°F 36% 30.24 in 10.0 miles Calm Calm - N/A   Clear
8:53 PM 55.9°F 35.1°F 45% 30.25 in 10.0 miles Calm Calm - N/A   Clear
9:53 PM 55.0°F 36.0°F 49% 30.25 in 10.0 miles NW 3.5 mph - N/A   Clear
10:53 PM 55.0°F 34.0°F 45% 30.25 in 10.0 miles NNW 3.5 mph - N/A   Clear
11:53 PM 54.0°F 32.0°F 43% 30.23 in 10.0 miles NNW 3.5 mph - N/A   Clear